SCP
0 0 0 0 0 0 0 0 0 0 0 0 0 0 0 0 0 0 0 0 0 0 0 0 0 0 0 0 0 0 0 0 0 0 0 0 0 0 0 0 0 0 0
0 0 0 0 0 0 0 0 0 0 0 0 0 0 0 0 0 0 0 0 0 0 0 0 0 0 0 0 0 0 0 0 0 0 0 0 0 0 0 0 0 0 0
0 0 0 0 -0 0 0 0 0 0 0 0 0 0 0 0 0 0 0 0 0 0 0 0 0 0 0 0 0 0 0 0 0 0 0 0 0 0 0 0 0 0 0
0 0 -0 -0 -0 0 0 0 0 0 0 0 0 0 0 0 0 0 0 0 0 0 0 0 0 0 0 0 0 0 0 0 0 0 0 0 0 0 0 0 0 0 0
-0 -0 0 0 0 0 0 0 0 0 0 0 0 0 0 0 0 0 0 0 0 0 0 0 0 0 0 0 0 0 0 0 0 0 0 0 0 0 0 0 0 0 0
0 0 0 0 0 0 0 0 0 0 0 0 0 0 0 0 0 0 0 0 0 0 0 0 0 0 0 0 0 0 0 0 0 0 0 0 0 0 0 0 0 0 0
0 0 0 0 0 -0 0 0 0 0 0 0 0 0 0 0 0 0 0 0 0 0 0 0 0 0 0 0 0 0 0 0 0 0 0 0 0 0 0 0 0 0 0
-0 -0 -0 -0 0 0 0 0 0 0 0 0 0 0 0 0 0 0 0 0 0 0 0 0 0 0 0 0 0 0 0 0 0 0 0 0 0 0 0 0 0 0 0
0 0 0 0 0 0 -0 -0 0 0 0 0 0 0 0 0 0 0 0 0 0 0 0 0 0 0 0 0 0 0 0 0 0 0 0 0 0 0 0 0 0 0 0
-0 -0 -0 -0 -0 0 0 0 0 0 0 0 0 0 0 0 0 0 0 0 0 0 0 0 0 0 0 0 0 0 0 0 0 0 0 0 0 0 0 0 0 0 0
0 0 0 -0 -0 -0 0 0 0 0 0 0 0 0 0 0 0 0 0 0 0 0 0 0 0 0 0 0 0 0 0 0 0 0 0 0 0 0 0 0 0 0 0
0 0 0 0 0 0 0 0 0 0 0 0 -0 -0 0 0 0 0 0 0 0 0 0 0 0 0 0 0 0 0 0 0 0 0 0 0 0 0 0 0 0 0 0
0 0 0 0 0 0 0 0 0 0 0 0 0 0 0 0 0 0 0 0 0 0 0 0 0 0 0 0 0 0 0 0 0 0 0 0 0 0 0 0 0 0 0
-0 -0 0 0 0 0 0 0 0 0 0 0 0 0 0 0 0 0 0 0 0 0 0 0 0 0 0 0 0 0 0 0 0 0 0 0 0 0 0 0 0 0 0
-0 -0 0 0 0 0 0 0 0 0 0 0 0 0 0 0 0 -0 -0 -0 0 0 0 0 0 0 0 0 0 0 0 0 0 0 0 0 0 0 0 0 0 0 0
0 0 0 0 0 0 0 0 0 0 0 0 0 0 0 0 0 0 -0 -0 -0 0 0 0 0 0 0 0 0 0 0 0 0 0 0 0 0 0 0 0 0 0 0
0 0 0 -0 -0 -0 -0 -0 -0 0 0 0 -0 -0 0 0 0 0 0 0 0 0 0 0 0 0 0 0 0 0 0 0 0 0 0 0 0 0 0 0 0 0 0
0 -0 -0 -0 -0 -0 -0 -0 -0 -0 -0 0 0 0 0 0 0 0 0 0 0 0 0 0 0 0 0 0 0 0 0 0 0 0 0 0 0 0 0 0 0 0 0
-0 -0 -0 -0 -0 -0 -0 -0 -0 -0 -0 -0 -0 0 0 0 0 0 0 0 0 0 0 0 0 0 0 0 0 0 0 0 0 0 0 0 0 0 0 0 0 0 0
0 0 0 0 0 0 -0 -0 -0 -0 -0 -0 -0 -0 0 0 0 0 0 0 0 0 0 0 0 0 0 0 0 0 0 0 0 0 0 0 0 0 0 0 0 0 0
0 0 0 0 0 0 0 0 0 0 -0 -0 -0 -0 -0 -0 0 0 0 0 0 0 0 0 0 0 0 0 0 0 0 0 0 0 0 0 0 0 0 0 0 0 0
0 0 0 0 0 0 0 0 0 0 0 0 -0 -0 -0 -0 -0 -0 -0 -0 0 0 0 0 0 0 0 0 0 0 0 0 0 0 0 0 0 0 0 0 0 0 0
0 0 0 0 0 0 0 0 0 0 0 0 -0 -0 -0 -0 -0 -0 -0 -0 -0 0 0 0 0 0 0 0 0 0 0 0 0 0 0 0 0 0 0 0 0 0 0
0 0 0 0 0 0 0 0 0 0 0 0 0 -0 -0 -0 -0 -0 -0 -0 -0 -0 0 0 0 0 0 0 0 0 0 0 0 0 0 0 0 0 0 0 0 0 0
0 0 0 0 0 0 0 0 0 0 0 0 0 0 -0 -0 -0 0 0 0 0 -0 0 0 0 0 0 0 0 0 0 0 0 0 0 0 0 0 0 0 0 0 0
0 0 0 0 0 0 0 0 0 0 0 0 0 0 0 0 0 -0 -0 0 -0 -0 -0 0 0 0 0 0 0 -0 0 0 0 0 0 0 0 0 0 0 0 0 0
Wind_Speed_500mb
76 66 60 54 46 44 50 54 60 65 80 87 96 103 106 104 107 103 99 96 92 91 89 86 83 78 74 65 58 51 47 42 36 27 20 17 16 18 21 21 20 17 15
68 64 62 51 38 31 35 47 54 63 72 83 89 99 103 108 110 107 106 103 101 97 96 93 88 83 77 72 67 61 56 51 42 32 22 15 18 22 23 24 22 16 15
52 48 51 48 41 37 36 37 42 49 62 74 86 95 102 102 106 114 113 111 104 101 99 95 92 88 83 81 74 70 63 58 51 42 30 16 17 25 33 34 30 27 23
34 47 62 64 51 37 30 32 38 44 53 67 81 91 97 101 101 106 112 111 107 105 103 100 96 93 89 86 79 74 70 65 59 49 46 39 28 23 20 37 34 32 32
44 54 61 76 79 64 39 33 34 42 50 61 71 80 86 91 96 94 101 107 109 108 105 103 100 97 93 87 84 81 79 73 66 61 53 47 42 40 34 25 34 35 34
30 58 75 72 66 58 52 44 34 35 39 49 57 68 77 83 88 93 93 92 103 109 108 107 105 100 96 94 89 85 81 76 70 65 60 55 50 46 42 41 32 32 31
59 76 70 68 64 58 63 58 53 43 35 41 44 52 62 72 82 88 86 88 91 99 107 108 107 105 100 95 91 89 85 82 78 73 68 62 55 48 41 40 38 35 33
61 59 57 56 58 53 46 46 45 44 43 42 42 49 58 61 71 83 86 84 85 84 90 100 104 102 100 99 95 92 88 86 84 80 75 69 64 58 51 45 41 37 37
66 63 60 57 49 46 52 49 45 40 33 34 40 41 48 57 62 66 74 82 82 82 81 84 96 100 101 100 99 99 97 93 89 85 80 77 73 66 59 53 48 44 39
66 66 60 56 53 49 45 46 44 45 42 36 35 36 41 46 55 62 67 72 77 82 82 80 83 93 99 101 103 104 102 99 96 91 88 86 81 75 68 61 54 50 45
56 57 60 60 58 57 56 51 49 47 47 45 45 43 38 41 45 55 61 68 73 80 83 83 87 89 94 101 106 110 108 107 104 98 95 93 88 84 76 69 61 56 51
46 52 52 55 60 63 60 62 59 54 54 52 47 46 47 44 44 48 52 59 68 74 84 87 91 95 96 99 104 113 115 114 113 106 101 100 95 92 83 76 69 60 54
51 52 56 60 63 66 67 63 62 64 58 53 56 54 53 55 52 49 50 52 55 66 75 86 91 98 101 102 105 111 120 120 118 114 107 106 103 101 92 84 74 64 58
44 48 45 49 55 62 66 69 68 65 67 62 56 60 61 61 64 62 57 58 56 57 68 82 89 95 100 104 106 108 118 124 126 119 112 112 111 108 98 90 79 71 68
32 44 47 43 50 57 62 66 67 67 68 69 65 62 61 62 62 65 66 60 60 61 61 70 83 97 99 102 109 110 114 124 128 124 120 118 113 110 101 94 87 82 74
50 54 49 44 51 57 62 65 67 67 68 69 70 66 64 63 65 68 69 67 67 64 62 70 77 90 102 101 105 108 109 117 121 130 127 120 118 115 103 95 87 81 79
57 59 52 46 56 57 55 61 64 67 69 72 76 78 74 69 66 66 67 67 67 70 67 69 71 85 94 96 102 106 111 114 115 123 129 124 127 116 108 100 92 86 82
59 60 58 56 62 55 56 59 57 61 65 68 73 77 83 84 78 75 74 68 67 67 71 64 66 72 83 84 91 98 105 107 111 117 123 124 130 121 116 106 100 95 88
63 63 60 65 73 69 65 67 65 63 67 73 78 79 82 87 93 90 86 80 73 66 66 72 66 66 73 78 80 85 106 100 106 116 121 124 127 122 118 109 103 96 89
69 67 64 73 81 79 78 78 78 80 81 83 82 86 89 89 93 95 97 91 82 77 68 68 75 68 66 69 75 79 86 101 107 116 116 124 123 116 116 111 105 101 92
72 71 70 79 85 83 84 88 89 89 87 88 93 97 95 100 100 100 101 101 90 83 80 73 67 77 66 64 65 74 87 99 109 113 112 115 116 107 106 110 104 94 84
79 77 78 87 92 90 93 96 99 98 96 100 99 98 99 106 111 110 107 102 100 88 84 83 74 74 72 65 65 73 78 101 102 106 103 104 107 103 104 102 93 86 79
77 82 91 98 100 97 97 99 107 106 111 113 115 115 113 107 110 117 116 108 99 96 87 80 80 76 75 70 62 64 75 102 105 92 90 91 92 100 103 101 90 83 84
86 85 86 97 107 106 105 105 111 110 114 122 127 127 127 124 116 112 115 107 97 87 87 81 83 78 79 74 66 59 61 91 87 84 77 81 79 88 92 81 70 87 83
86 84 84 86 101 102 112 110 105 107 119 125 129 128 123 120 116 110 108 106 100 77 80 80 77 77 79 82 63 51 64 84 93 85 70 69 78 88 88 85 83 79 78
88 92 96 90 99 99 107 103 104 104 109 115 113 103 99 100 101 102 108 103 89 70 72 74 70 78 72 67 69 39 56 75 94 84 82 79 89 90 96 100 98 88 79
Wind_Direction_500mb
302 305 311 314 309 299 286 275 262 251 239 236 236 236 237 237 236 234 234 233 231 231 231 231 230 229 229 229 227 224 225 224 226 230 235 246 250 245 230 223 219 216 215
310 317 326 329 327 311 297 281 266 254 244 238 239 236 238 238 238 236 234 232 230 228 228 230 230 231 230 227 225 225 224 223 223 224 221 229 238 226 221 217 212 220 226
310 328 337 337 336 333 314 293 278 263 252 245 240 237 237 238 239 236 234 232 230 231 230 229 230 232 231 231 230 229 227 228 227 224 217 195 211 213 224 226 227 234 216
338 356 3 359 334 314 306 305 294 270 256 248 245 241 240 240 242 240 237 234 231 231 231 231 231 230 231 231 230 230 229 228 228 225 228 232 230 196 207 224 229 216 235
44 22 15 13 8 359 319 294 287 275 263 257 255 251 246 246 247 246 242 235 232 231 231 233 232 231 231 231 231 229 227 228 229 231 231 231 231 231 228 219 222 230 225
40 21 3 4 4 4 9 350 331 310 286 272 265 263 258 254 250 247 245 243 235 231 232 232 232 233 232 231 230 230 231 231 232 234 236 239 234 233 229 229 226 221 226
10 6 9 11 13 21 32 29 25 13 338 306 289 278 271 264 260 256 252 247 240 234 233 233 232 232 232 232 231 230 230 230 231 233 235 237 238 240 238 234 233 229 229
13 20 16 18 16 15 10 11 9 3 351 332 315 298 284 276 270 268 263 257 251 245 240 237 235 235 235 233 230 231 232 232 232 232 232 234 236 238 239 241 238 233 231
19 20 20 22 16 8 5 359 351 347 343 332 323 315 305 292 281 274 269 266 261 253 248 243 238 238 237 235 232 231 230 231 232 233 234 236 235 234 235 237 237 234 233
16 15 15 13 14 14 11 9 8 6 359 340 324 313 309 300 292 283 277 268 264 258 253 249 245 241 239 237 235 233 232 231 230 231 233 235 235 233 233 233 234 234 234
3 358 356 360 0 358 1 5 1 357 355 354 346 330 315 302 293 289 287 280 270 263 258 253 248 244 240 237 237 237 235 233 231 230 232 234 234 233 232 232 231 231 232
3 2 356 350 352 351 347 352 354 353 353 353 348 344 333 314 302 296 290 282 277 271 263 257 252 248 243 240 237 237 237 234 232 231 231 232 232 231 231 231 231 231 232
16 7 359 358 355 356 355 350 348 347 346 343 344 342 341 336 324 303 293 288 285 278 269 261 254 252 248 244 240 238 238 237 235 234 232 233 232 231 230 230 230 231 232
3 360 359 351 347 348 347 346 348 347 344 344 339 341 342 339 337 329 311 296 287 279 276 269 263 258 253 249 246 242 240 239 237 234 234 235 235 234 231 230 230 231 231
352 350 350 348 336 339 338 340 340 341 341 339 340 340 336 335 334 334 330 316 294 286 279 273 268 263 255 251 246 243 242 241 239 238 235 235 235 236 235 233 229 229 228
340 343 341 341 334 335 335 333 334 338 336 334 336 334 334 330 323 323 328 329 321 300 286 279 274 268 260 255 250 245 243 243 242 242 239 236 235 234 232 232 231 233 232
334 331 327 325 324 328 330 329 332 331 332 334 335 333 333 329 326 320 315 318 322 319 300 283 277 273 269 261 256 252 246 242 242 243 242 238 236 232 230 228 228 229 229
325 322 317 316 317 316 319 321 324 326 327 327 328 330 332 330 326 323 319 314 309 311 311 297 283 275 272 270 263 257 251 246 245 245 244 242 239 233 229 226 226 227 227
320 315 310 312 314 312 315 316 315 317 320 323 324 325 327 325 326 325 321 315 309 301 301 304 296 282 275 271 266 260 253 246 245 244 243 241 238 233 229 226 225 226 225
316 311 307 310 311 310 313 312 311 312 312 315 316 317 319 319 319 321 320 316 313 304 295 297 299 291 280 271 266 260 249 250 244 241 238 240 238 233 227 227 225 224 224
309 309 305 308 309 305 306 305 305 304 307 306 308 310 311 311 313 314 315 314 312 306 297 289 288 293 285 275 265 250 239 246 242 241 238 239 236 232 225 226 225 226 225
306 306 303 305 305 302 302 302 301 305 305 303 301 300 302 305 307 308 309 309 307 303 297 292 286 284 289 279 263 251 240 240 244 244 242 237 235 228 221 224 224 222 220
303 304 305 305 303 303 303 300 300 302 301 301 300 299 299 297 298 301 302 304 303 299 295 288 283 281 283 283 269 256 235 231 237 242 246 242 233 225 218 219 218 213 215
304 306 303 302 302 302 301 298 300 299 298 298 297 297 297 295 293 293 295 297 296 292 290 288 281 281 279 276 276 252 232 228 226 232 234 234 224 216 212 202 203 211 211
306 306 302 299 297 298 297 296 296 296 296 296 296 295 296 295 294 290 288 288 287 281 279 278 278 276 275 275 277 267 230 221 221 229 226 211 201 197 198 197 197 209 210
309 307 305 300 298 297 295 295 295 294 294 295 295 295 294 293 292 290 287 282 284 279 266 264 263 271 275 277 274 263 239 220 221 215 220 208 199 194 195 198 197 203 206
Wind_Speed_850mb
76 66 60 54 46 44 50 54 60 65 80 87 96 103 106 104 107 103 99 96 92 91 89 86 83 78 74 65 58 51 47 42 36 27 20 17 16 18 21 21 20 17 15
68 64 62 51 38 31 35 47 54 63 72 83 89 99 103 108 110 107 106 103 101 97 96 93 88 83 77 72 67 61 56 51 42 32 22 15 18 22 23 24 22 16 15
52 48 51 48 41 37 36 37 42 49 62 74 86 95 102 102 106 114 113 111 104 101 99 95 92 88 83 81 74 70 63 58 51 42 30 16 17 25 33 34 30 27 23
34 47 62 64 51 37 30 32 38 44 53 67 81 91 97 101 101 106 112 111 107 105 103 100 96 93 89 86 79 74 70 65 59 49 46 39 28 23 20 37 34 32 32
44 54 61 76 79 64 39 33 34 42 50 61 71 80 86 91 96 94 101 107 109 108 105 103 100 97 93 87 84 81 79 73 66 61 53 47 42 40 34 25 34 35 34
30 58 75 72 66 58 52 44 34 35 39 49 57 68 77 83 88 93 93 92 103 109 108 107 105 100 96 94 89 85 81 76 70 65 60 55 50 46 42 41 32 32 31
59 76 70 68 64 58 63 58 53 43 35 41 44 52 62 72 82 88 86 88 91 99 107 108 107 105 100 95 91 89 85 82 78 73 68 62 55 48 41 40 38 35 33
61 59 57 56 58 53 46 46 45 44 43 42 42 49 58 61 71 83 86 84 85 84 90 100 104 102 100 99 95 92 88 86 84 80 75 69 64 58 51 45 41 37 37
66 63 60 57 49 46 52 49 45 40 33 34 40 41 48 57 62 66 74 82 82 82 81 84 96 100 101 100 99 99 97 93 89 85 80 77 73 66 59 53 48 44 39
66 66 60 56 53 49 45 46 44 45 42 36 35 36 41 46 55 62 67 72 77 82 82 80 83 93 99 101 103 104 102 99 96 91 88 86 81 75 68 61 54 50 45
56 57 60 60 58 57 56 51 49 47 47 45 45 43 38 41 45 55 61 68 73 80 83 83 87 89 94 101 106 110 108 107 104 98 95 93 88 84 76 69 61 56 51
46 52 52 55 60 63 60 62 59 54 54 52 47 46 47 44 44 48 52 59 68 74 84 87 91 95 96 99 104 113 115 114 113 106 101 100 95 92 83 76 69 60 54
51 52 56 60 63 66 67 63 62 64 58 53 56 54 53 55 52 49 50 52 55 66 75 86 91 98 101 102 105 111 120 120 118 114 107 106 103 101 92 84 74 64 58
44 48 45 49 55 62 66 69 68 65 67 62 56 60 61 61 64 62 57 58 56 57 68 82 89 95 100 104 106 108 118 124 126 119 112 112 111 108 98 90 79 71 68
32 44 47 43 50 57 62 66 67 67 68 69 65 62 61 62 62 65 66 60 60 61 61 70 83 97 99 102 109 110 114 124 128 124 120 118 113 110 101 94 87 82 74
50 54 49 44 51 57 62 65 67 67 68 69 70 66 64 63 65 68 69 67 67 64 62 70 77 90 102 101 105 108 109 117 121 130 127 120 118 115 103 95 87 81 79
57 59 52 46 56 57 55 61 64 67 69 72 76 78 74 69 66 66 67 67 67 70 67 69 71 85 94 96 102 106 111 114 115 123 129 124 127 116 108 100 92 86 82
59 60 58 56 62 55 56 59 57 61 65 68 73 77 83 84 78 75 74 68 67 67 71 64 66 72 83 84 91 98 105 107 111 117 123 124 130 121 116 106 100 95 88
63 63 60 65 73 69 65 67 65 63 67 73 78 79 82 87 93 90 86 80 73 66 66 72 66 66 73 78 80 85 106 100 106 116 121 124 127 122 118 109 103 96 89
69 67 64 73 81 79 78 78 78 80 81 83 82 86 89 89 93 95 97 91 82 77 68 68 75 68 66 69 75 79 86 101 107 116 116 124 123 116 116 111 105 101 92
72 71 70 79 85 83 84 88 89 89 87 88 93 97 95 100 100 100 101 101 90 83 80 73 67 77 66 64 65 74 87 99 109 113 112 115 116 107 106 110 104 94 84
79 77 78 87 92 90 93 96 99 98 96 100 99 98 99 106 111 110 107 102 100 88 84 83 74 74 72 65 65 73 78 101 102 106 103 104 107 103 104 102 93 86 79
77 82 91 98 100 97 97 99 107 106 111 113 115 115 113 107 110 117 116 108 99 96 87 80 80 76 75 70 62 64 75 102 105 92 90 91 92 100 103 101 90 83 84
86 85 86 97 107 106 105 105 111 110 114 122 127 127 127 124 116 112 115 107 97 87 87 81 83 78 79 74 66 59 61 91 87 84 77 81 79 88 92 81 70 87 83
86 84 84 86 101 102 112 110 105 107 119 125 129 128 123 120 116 110 108 106 100 77 80 80 77 77 79 82 63 51 64 84 93 85 70 69 78 88 88 85 83 79 78
88 92 96 90 99 99 107 103 104 104 109 115 113 103 99 100 101 102 108 103 89 70 72 74 70 78 72 67 69 39 56 75 94 84 82 79 89 90 96 100 98 88 79
Wind_Direction_850mb
302 305 311 314 309 299 286 275 262 251 239 236 236 236 237 237 236 234 234 233 231 231 231 231 230 229 229 229 227 224 225 224 226 230 235 246 250 245 230 223 219 216 215
310 317 326 329 327 311 297 281 266 254 244 238 239 236 238 238 238 236 234 232 230 228 228 230 230 231 230 227 225 225 224 223 223 224 221 229 238 226 221 217 212 220 226
310 328 337 337 336 333 314 293 278 263 252 245 240 237 237 238 239 236 234 232 230 231 230 229 230 232 231 231 230 229 227 228 227 224 217 195 211 213 224 226 227 234 216
338 356 3 359 334 314 306 305 294 270 256 248 245 241 240 240 242 240 237 234 231 231 231 231 231 230 231 231 230 230 229 228 228 225 228 232 230 196 207 224 229 216 235
44 22 15 13 8 359 319 294 287 275 263 257 255 251 246 246 247 246 242 235 232 231 231 233 232 231 231 231 231 229 227 228 229 231 231 231 231 231 228 219 222 230 225
40 21 3 4 4 4 9 350 331 310 286 272 265 263 258 254 250 247 245 243 235 231 232 232 232 233 232 231 230 230 231 231 232 234 236 239 234 233 229 229 226 221 226
10 6 9 11 13 21 32 29 25 13 338 306 289 278 271 264 260 256 252 247 240 234 233 233 232 232 232 232 231 230 230 230 231 233 235 237 238 240 238 234 233 229 229
13 20 16 18 16 15 10 11 9 3 351 332 315 298 284 276 270 268 263 257 251 245 240 237 235 235 235 233 230 231 232 232 232 232 232 234 236 238 239 241 238 233 231
19 20 20 22 16 8 5 359 351 347 343 332 323 315 305 292 281 274 269 266 261 253 248 243 238 238 237 235 232 231 230 231 232 233 234 236 235 234 235 237 237 234 233
16 15 15 13 14 14 11 9 8 6 359 340 324 313 309 300 292 283 277 268 264 258 253 249 245 241 239 237 235 233 232 231 230 231 233 235 235 233 233 233 234 234 234
3 358 356 360 0 358 1 5 1 357 355 354 346 330 315 302 293 289 287 280 270 263 258 253 248 244 240 237 237 237 235 233 231 230 232 234 234 233 232 232 231 231 232
3 2 356 350 352 351 347 352 354 353 353 353 348 344 333 314 302 296 290 282 277 271 263 257 252 248 243 240 237 237 237 234 232 231 231 232 232 231 231 231 231 231 232
16 7 359 358 355 356 355 350 348 347 346 343 344 342 341 336 324 303 293 288 285 278 269 261 254 252 248 244 240 238 238 237 235 234 232 233 232 231 230 230 230 231 232
3 360 359 351 347 348 347 346 348 347 344 344 339 341 342 339 337 329 311 296 287 279 276 269 263 258 253 249 246 242 240 239 237 234 234 235 235 234 231 230 230 231 231
352 350 350 348 336 339 338 340 340 341 341 339 340 340 336 335 334 334 330 316 294 286 279 273 268 263 255 251 246 243 242 241 239 238 235 235 235 236 235 233 229 229 228
340 343 341 341 334 335 335 333 334 338 336 334 336 334 334 330 323 323 328 329 321 300 286 279 274 268 260 255 250 245 243 243 242 242 239 236 235 234 232 232 231 233 232
334 331 327 325 324 328 330 329 332 331 332 334 335 333 333 329 326 320 315 318 322 319 300 283 277 273 269 261 256 252 246 242 242 243 242 238 236 232 230 228 228 229 229
325 322 317 316 317 316 319 321 324 326 327 327 328 330 332 330 326 323 319 314 309 311 311 297 283 275 272 270 263 257 251 246 245 245 244 242 239 233 229 226 226 227 227
320 315 310 312 314 312 315 316 315 317 320 323 324 325 327 325 326 325 321 315 309 301 301 304 296 282 275 271 266 260 253 246 245 244 243 241 238 233 229 226 225 226 225
316 311 307 310 311 310 313 312 311 312 312 315 316 317 319 319 319 321 320 316 313 304 295 297 299 291 280 271 266 260 249 250 244 241 238 240 238 233 227 227 225 224 224
309 309 305 308 309 305 306 305 305 304 307 306 308 310 311 311 313 314 315 314 312 306 297 289 288 293 285 275 265 250 239 246 242 241 238 239 236 232 225 226 225 226 225
306 306 303 305 305 302 302 302 301 305 305 303 301 300 302 305 307 308 309 309 307 303 297 292 286 284 289 279 263 251 240 240 244 244 242 237 235 228 221 224 224 222 220
303 304 305 305 303 303 303 300 300 302 301 301 300 299 299 297 298 301 302 304 303 299 295 288 283 281 283 283 269 256 235 231 237 242 246 242 233 225 218 219 218 213 215
304 306 303 302 302 302 301 298 300 299 298 298 297 297 297 295 293 293 295 297 296 292 290 288 281 281 279 276 276 252 232 228 226 232 234 234 224 216 212 202 203 211 211
306 306 302 299 297 298 297 296 296 296 296 296 296 295 296 295 294 290 288 288 287 281 279 278 278 276 275 275 277 267 230 221 221 229 226 211 201 197 198 197 197 209 210
309 307 305 300 298 297 295 295 295 294 294 295 295 295 294 293 292 290 287 282 284 279 266 264 263 271 275 277 274 263 239 220 221 215 220 208 199 194 195 198 197 203 206